STARLINK-34905 (65202 NORAD) Tracking and Keplerian Element Data

This shows tracking and keplerian element data for the satellite.

Feedback or suggestion? Click here.




ElementValue
Catalog65202
NameSTARLINK-34905
Epoch Orbit2088
Epoch Day353.77938677
Epoch Year2025
RAAN164.0593
Inclination53.1573
Eccentricity0.0001708
Argument of Perigee87.3266
Mean Anonmoly272.793
Mean Motion15.30199883
Decay Rate0.00014352
L11 65202U 25176E 25353.77938677 .00014352 00000+0 49575-3 0 9995
L22 65202 53.1573 164.0593 0001708 87.3266 272.7930 15.30199883 20882



Live tracking and technical data element details for STARLINK-34905 (NORAD 65202). STARLINK-34905 can be tracked NOW for your location showing map with azimuth and elevation plus other details from your city location.







IsCatalogInMostPopularTable: catalog: 65202, numindb: 10
Update: records affected: 1



GetName: 65202 STARLINK-34905

Hit Count: updated at: Mon, 20 Apr 2026 09:58:17 GMT